Weather in Blagoveschensk

Russia / Republic of Bashkortostan     55°02′59″N   55°57′18″E
temp.,
°C
wind,
m/s
gust,
m/s
humid.,
%
clouds,
%
prec.,
mm/h
press.,
hPa
HPBL,
m
3 march, wed
wed323:00−5ssw71395100 3.0 1002651
02:00−3sw61296100 1.7 1000557
05:00−3sw5995100 2.3 1000316
08:00−4sw3796100 0.1 1000262
11:00−2wsw4692100 0.4 1000542
14:00−1sw4689100 0.1 1000611
17:00−1sw4693100 0.3 1000541
20:00−4wsw3697100 0.6 1000190
4 march, thu
thu423:00−4wsw4895100 1.0 1001278
02:00−5wnw61294100 0.1 1000535
05:00−10wnw51194100 0.4 1002298
08:00−13wsw379699 0.1 1003147
11:00−10sw479398 0.1 1004334
14:00−7ssw61094100 1.4 1002639
17:00−4sw71292100 2.6 1000781
20:00−5ssw81494100 0.6 998901
5 march, fri
fri523:00−4ssw81689100 2.2 996859
02:00−3wsw9178076 0.5 995759
05:00−5wsw7178547 0.5 998580
08:00−6sw41191100 0.0 1001303
11:00−3wsw4890100 0.0 1001635
14:00−2ssw2396100 1.3 1000368
17:00−1n2297100 2.9 1000205
20:00−4n4896100 1.1 1000354
6 march, sat
sat623:00−7nw71192100 2.8 1004501
02:00−15nw499367 0.0 1009184
05:00−20w229733 0.0 101320
08:00−20ssw22983 0.0 101520
11:00−14ssw349118 0.0 1014230
14:00−10s358884 0.0 1013331
17:00−9sse359091 0.0 1012272
20:00−13se2290100 0.0 101021
7 march, sun
sun723:00−13e1184100 0.0 100821
02:00−15nw128653 0.0 100620
05:00−18w229133 0.0 100620
08:00−15wsw2397100 0.1 100684
11:00−13wnw589399 0.3 1008443
14:00−13w5788100 0.1 1009520
17:00−13wsw468794 0.1 1011650
20:00−18ssw339486 0.0 101231